CW3660 Weather Reports


Display with metric or nautical units.
time (UTC)temp
F
wind
direction
speed
MPH
gust
MPH
rain 1hr
in
rain 24hr
in
rain mn
in
humidity
%
barometer
mb
20260503032016 48 0.0 0.0 0.00 0.09 0.09 87 1010.5
20260503031036 48 0.0 0.0 0.00 0.09 0.09 87 1010.3
20260503030016 48 0.0 0.0 0.00 0.09 0.09 86 1010.4
20260503025016 48 315 1.0 4.0 0.00 0.09 0.09 86 1010.3
20260503024016 49 0 1.0 3.0 0.00 0.09 0.09 85 1010.3
20260503023016 49 0 1.0 3.0 0.00 0.09 0.09 84 1010.2
20260503022016 49 23 1.0 3.0 0.00 0.09 0.09 83 1010.4
20260503021036 49 0.0 2.0 0.00 0.09 0.09 83 1010.6
20260503020016 50 0.0 0.0 0.00 0.09 0.09 82 1010.6
20260503015036 50 0.0 0.0 0.00 0.09 0.09 82 1010.6
20260503014016 50 23 1.0 3.0 0.00 0.09 0.09 82 1010.6
20260503013036 50 23 1.0 3.0 0.00 0.09 0.09 82 1010.5
20260503012016 50 0 1.0 3.0 0.00 0.09 0.09 82 1010.5
20260503011016 50 45 2.0 5.0 0.00 0.09 0.09 83 1010.4
20260503010016 50 0 2.0 5.0 0.00 0.09 0.09 84 1010.4
20260503005016 50 338 3.0 7.0 0.00 0.09 0.09 84 1010.4
20260503004016 50 23 3.0 5.0 0.00 0.09 0.09 85 1010.5
20260503003016 50 0 3.0 6.0 0.00 0.09 0.09 86 1010.5
20260503002016 51 0 2.0 6.0 0.00 0.09 0.09 86 1010.5
20260503000016 51 338 4.0 7.0 0.00 0.09 0.09 85 1010.3
20260502235016 51 225 1.0 3.0 0.00 0.09 0.09 81 1010.2
20260502234016 51 225 1.0 2.0 0.00 0.09 0.09 81 1010.0
20260502233016 51 0.0 2.0 0.00 0.09 0.09 81 1010.1
20260502232016 51 0.0 2.0 0.00 0.09 0.09 81 1010.1
20260502231016 51 0.0 1.0 0.00 0.09 0.09 82 1010.0
20260502230016 51 180 1.0 2.0 0.00 0.09 0.09 82 1009.8
20260502225016 51 180 1.0 2.0 0.00 0.09 0.09 82 1009.6
20260502224016 51 180 1.0 3.0 0.00 0.09 0.09 82 1009.5
20260502223016 51 180 1.0 3.0 0.00 0.09 0.09 83 1009.5
20260502222056 51 0.0 1.0 0.00 0.09 0.09 83 1009.6
20260502221016 51 0.0 0.0 0.00 0.09 0.09 83 1009.6
20260502220016 51 0.0 2.0 0.00 0.09 0.09 83 1009.7
20260502215057 51 315 2.0 3.0 0.00 0.09 0.09 82 1009.8
20260502214016 51 315 1.0 4.0 0.00 0.09 0.09 81 1009.8
20260502213036 51 225 2.0 4.0 0.00 0.09 0.09 79 1010.0
20260502212015 52 270 2.0 9.0 0.00 0.09 0.09 76 1010.0
20260502211016 53 293 2.0 7.0 0.00 0.09 0.09 75 1009.9
20260502210016 53 315 2.0 6.0 0.00 0.09 0.09 76 1009.8
20260502205015 53 315 2.0 4.0 0.00 0.09 0.09 75 1009.7
20260502204015 54 315 2.0 5.0 0.00 0.09 0.09 74 1009.7
20260502203016 54 315 2.0 5.0 0.00 0.09 0.09 73 1009.7
20260502202016 55 203 2.0 7.0 0.00 0.09 0.09 69 1009.8
20260502201036 55 158 4.0 11.0 0.00 0.09 0.09 68 1009.6
20260502200035 56 158 3.0 8.0 0.00 0.09 0.09 68 1009.6
20260502195015 56 158 4.0 8.0 0.00 0.09 0.09 66 1009.6
20260502194017 56 158 4.0 10.0 0.00 0.09 0.09 64 1009.8
20260502193056 57 158 3.0 10.0 0.00 0.09 0.09 63 1009.8
20260502192035 57 158 4.0 10.0 0.00 0.09 0.09 60 1009.9
20260502191017 58 158 4.0 10.0 0.00 0.09 0.09 59 1009.9
20260502190015 59 158 5.0 13.0 0.00 0.09 0.09 56 1009.9
20260502185015 60 180 4.0 12.0 0.00 0.09 0.09 53 1010.0
20260502184036 60 203 5.0 15.0 0.00 0.09 0.09 56 1010.1
20260502183015 59 225 5.0 13.0 0.00 0.09 0.09 55 1010.0
20260502182036 58 158 6.0 14.0 0.01 0.09 0.09 57 1010.2
20260502181015 57 180 6.0 15.0 0.01 0.09 0.09 58 1010.3
20260502164017 56 158 4.0 9.0 0.00 0.08 0.08 72 1010.8
20260502163017 55 180 1.0 3.0 0.00 0.08 0.08 76 1011.1
20260502162037 54 158 3.0 8.0 0.00 0.08 0.08 75 1011.4
20260502161015 55 158 3.0 8.0 0.00 0.08 0.08 76 1011.5
20260502152018 51 45 1.0 3.0 0.00 0.08 0.08 83 1011.5
20260502151018 50 113 1.0 3.0 0.00 0.08 0.08 84 1011.5
20260502123017 45 338 2.0 5.0 0.05 0.08 0.08 91 1012.5
20260502122017 45 315 2.0 4.0 0.04 0.06 0.06 90 1012.5
20260502121017 45 315 3.0 6.0 0.05 0.06 0.06 90 1012.3
20260502115016 46 315 2.0 4.0 0.05 0.06 0.06 89 1012.5
20260502114017 46 315 1.0 4.0 0.03 0.04 0.04 88 1012.7
20260502113017 46 338 1.0 3.0 0.02 0.03 0.03 87 1012.8
20260502112018 46 338 1.0 2.0 0.01 0.02 0.02 86 1012.3
20260502111037 46 338 1.0 2.0 0.00 0.01 0.01 86 1011.7
20260502110016 46 338 2.0 5.0 0.00 0.01 0.01 85 1011.4
20260502105016 46 338 2.0 4.0 0.00 0.01 0.01 85 1011.1
20260502104056 46 293 1.0 4.0 0.01 0.01 0.01 85 1011.4
20260502103016 46 315 2.0 3.0 0.01 0.01 0.01 84 1011.3
20260502102016 46 0 1.0 3.0 0.01 0.01 0.01 84 1011.2
20260502101016 46 0 1.0 3.0 0.01 0.01 0.01 84 1011.0
20260502091016 46 0.0 2.0 0.00 0.00 0.00 78 1010.8
20260502071016 47 315 2.0 5.0 0.00 0.00 0.00 74 1011.2
20260502070016 47 0.0 0.0 0.00 0.00 0.00 74 1011.5
20260502065016 47 0.0 0.0 0.00 0.00 0.00 73 1011.4
20260502064016 47 0.0 0.0 0.00 0.00 0.00 72 1011.3
20260502063016 48 0.0 0.0 0.00 0.00 0.00 71 1011.1
20260502062016 48 0.0 0.0 0.00 0.00 0.00 71 1010.8
20260502061016 48 0.0 0.0 0.00 0.00 0.00 70 1010.9
20260502060016 48 0.0 0.0 0.00 0.00 0.00 69 1010.9
20260502055017 48 0.0 0.0 0.00 0.00 0.00 67 1011.1
20260502054036 48 0.0 0.0 0.00 0.00 0.00 66 1011.1
20260502053016 49 0.0 0.0 0.00 0.00 0.00 64 1011.2
20260502052016 49 0.0 0.0 0.00 0.00 0.00 64 1011.2
20260502051016 49 0.0 0.0 0.00 0.00 0.00 64 1011.1
20260502050016 50 0.0 0.0 0.00 0.00 0.00 63 1010.9
20260502045016 49 0.0 0.0 0.00 0.00 0.00 61 1011.1
20260502044016 49 0.0 0.0 0.00 0.00 0.00 61 1011.4
20260502043036 49 0.0 0.0 0.00 0.00 0.00 60 1011.5
20260502042016 49 0.0 0.0 0.00 0.00 0.00 61 1011.4
20260502041016 49 0.0 0.0 0.00 0.00 0.00 62 1011.3
20260502040016 49 0.0 0.0 0.00 0.00 0.00 60 1011.2
20260502035016 49 0.0 0.0 0.00 0.00 0.00 60 1011.1
20260502034016 50 0.0 0.0 0.00 0.00 0.00 60 1011.1
20260502033016 50 0.0 0.0 0.00 0.00 0.00 61 1011.1